Location: Stara Lesna
(49.1528°N, 20.2911°E)
Time: 09:18:55
(UTC+02:00)

Cosmos 1862 Rocket - Pass Details

Date: 13 July 2020
Orbit: 605 x 633 km, 82.5° (Epoch: 06 August)

Event Time Altitude Azimuth Distance (km) Brightness Sun altitude
Rises 01:29:12 0° 348° (NNW) 2,924 8.2 -18.4°
Reaches altitude 10° 01:31:27 10° 346° (NNW) 2,016 7.2 -18.3°
Maximum altitude 01:35:53 69° 263° (W) 679 3.6 -18.1°
Enters shadow 01:37:29 38° 192° (SSW) 961 4.0 -18.1°
